www.pogodaiklimat.ru

Погода и климат >> Архив погоды >> Мексика >> Arriaga


ПОГОДА в Arriaga

  • Прогноз погоды в Arriaga
  • Монитор погоды в Arriaga
  • Климат города

АРХИВ ПОГОДЫ в Arriaga

Время (UTC), дата Ветер
(напр.,м/с)
 
Видим.   Явления Облачность Т
(С)
Тd
(С)
f
(%)
Тe
(С)
Тes
(С)
Комфортность P
(гПа)
Po
(гПа)
Тmin
(С)
Tmax
(С)
R
(мм)
R24
(мм)
S
(см)
18 10.12 С 5 5000 м 3/3 1020 м
[Sc diur, vesp]
+28.4 +25.0 82 +41 +46 опасность
перегрева
1016.2 1010.6 +21.0 +30.4
21 10.12 С 7 5000 м 1/1 1020 м
[Sc diur, vesp]
+28.5 +23.7 75 +39 +41 очень
душно
1013.3 1007.7
00 11.12 СВ 8 5000 м 1/1 1000 м
[Sc diur, vesp]
+25.8 +21.6 78 +33 +33 очень
душно
1014.2 1008.7 +21.0 +30.4
12 11.12 С 4 1000 м ясно +23.4 +19.3 78 +30 +30 очень
душно
1016.9 1011.5 +22.0 +30.4
15 11.12 С 3 5000 м 1/1 800 м
[Cu hum]
+24.4 +21.0 81 +31 +34 очень
душно
1018.8 1013.1
18 11.12 С 3 5000 м 1/1 800 м
[Cu hum]
+26.8 +22.3 76 +35 +45 очень
душно
1017.2 1011.6 +22.0 +28.0
21 11.12 С 4 5000 м 1/1 800 м
[Cu hum]
+25.8 +20.5 73 +32 +36 очень
душно
1014.6 1009.0
00 12.12 С 5 5000 м 1/1 600 м
[Cu hum]
+24.2 +19.2 74 +29 +29 душно 1014.8 1009.2 +22.0 +28.5
12 12.12 С 4 1000 м ясно +23.2 +19.1 78 +30 +30 очень
душно
1014.7 1009.0 +21.0 +28.5
15 12.12 С 3 5000 м ясно +24.8 +18.8 69 +30 +34 душно 1016.2 1010.6
18 12.12 С 1 5000 м ясно +30.8 +24.9 71 +44 +59 опасность
перегрева
1014.9 1009.3 +21.0 +32.0
21 12.12 штиль 0 5000 м 3/3 800 м
[Cu hum]
+34.8 +25.8 60 +50 +57 опасность
перегрева
1011.5 1006.0
00 13.12 штиль 0 5000 м 4/0 2000 м
[Ac lent]
+30.6 +26.1 77 +46 +46 опасность
перегрева
1012.0 1006.5 +21.0 +36.0
12 13.12 штиль 0 1000 м 1/1 600 м
[Cu hum]
+20.0 +18.8 93 +23 +23 комфорт 1013.4 1007.8 +18.0 +36.0
15 13.12 штиль 0 4000 м 3/3 840 м
[Cu hum]
+25.0 +22.2 84 +32 +37 очень
душно
1015.3 1009.7
18 13.12 штиль 0 3000 м 1/1 840 м
[Cu hum]
+32.6 +26.9 72 +27 +43 жарко 1013.0 1007.5 +18.0 +33.6
21 13.12 штиль 0 4000 м 1/1 840 м
[Cu hum]
+33.2 +29.1 79 +57 +65 опасность
перегрева
1010.3 1004.8
00 14.12 штиль 0 2000 м 5/0
[Cs]
+28.4 +25.2 83 +41 +41 опасность
перегрева
1011.2 1005.7 +18.0 +34.8
12 14.12 штиль 0 1000 м 6/3 600 м
[Sc diur, vesp Cs]
+23.4 +22.6 95 +32 +32 очень
душно
1014.2 1008.6 +20.0 +34.8
15 14.12 штиль 0 3000 м 4/0 2000 м
[Ac lent]
+27.0 +22.9 78 +36 +40 очень
душно
1016.1 1010.5
18 14.12 Ю 3 3000 м 4/4 840 м
[Cu med, cong]
+32.0 +27.6 78 +52 +58 опасность
перегрева
1014.3 1008.8 +20.0 +33.0
00 15.12 С 8 2000 м слабая переохл. морось (гололёд) 4/4 600 м
[Sc diur, vesp]
+26.6 +23.7 84 +36 +36 очень
душно
1013.0 1007.4 0.3
12 15.12 С 8 2000 м ясно +22.8 +20.5 87 +30 +30 очень
душно
1015.7 1010.1 +19.0 +34.6
15 15.12 С 8 4000 м 4/4 840 м
[Sc diur, vesp]
+23.4 +20.2 82 +31 +31 очень
душно
1018.2 1012.5
18 15.12 С 11 5000 м 4/4 840 м
[Sc diur, vesp]
+25.0 +22.8 88 +33 +33 очень
душно
1017.3 1011.7 +19.0 +27.0
21 15.12 С 13 5000 м 3/3 840 м
[Sc diur, vesp]
+24.2 +21.4 84 +31 +31 очень
душно
1015.0 1009.4
00 16.12 С 13 4000 м 6/3 600 м
[Sc diur, vesp As trans]
+22.4 +21.5 95 +30 +30 очень
душно
1015.5 1009.9 +19.0 +27.4
12 16.12 С 2 100 м ясно +21.8 +19.9 89 +27 +27 душно 1017.4 1011.8 +19.0 +27.4
15 16.12 С 2 5000 м 3/3 800 м
[Cu hum]
+22.4 +20.7 90 +29 +32 очень
душно
1019.2 1013.5
18 16.12 С 2 5000 м 3/3 800 м
[Cu hum]
+25.4 +21.7 80 +33 +42 очень
душно
1017.7 1012.1 +19.0 +27.0
21 16.12 С 2 5000 м 4/4 800 м
[Cu hum]
+26.0 +23.2 85 +35 +39 очень
душно
1015.2 1009.6
00 17.12 С 2 4000 м 1/1 600 м
[Cu hum]
+23.4 +18.4 74 +30 +30 очень
душно
1015.3 1009.7 +19.0 +27.6
12 17.12 С 2 1000 м ясно +22.2 +18.9 82 +28 +28 душно 1016.5 1010.9 +19.0 +27.6
15 17.12 С 2 4000 м ясно +23.6 +20.4 82 +29 +34 душно 1018.7 1013.0

 

Местоположение метеостанции Arriaga (Мексика): широта 16.23 долгота -93.90 высота над уровнем моря 48 м.

В архиве по умолчанию представлена погода в Arriaga за последнюю неделю. Архивные данные за месяц целиком и за предыдущие месяцы, начиная с января 2011 года, Вы можете получить, выбрав интересующий диапазон дат из раскрывающегося списка и нажав кнопку "Ввод!".


*Определитесь, кто Вы:
робот инопланетянин человек

Внимание! Время в таблицах - всемирное. Для получения местного времени необходимо прибавить поправку, которая в Arriaga равна -6 ч.

Смотрите также архив погоды в соседних городах и на ближайших метеорологических станциях:

Погода в Tuxtla Gutierrez (Мексика) (100 км)
Погода в Salina Cruz (Мексика) (137 км)
Погода в Sn. Cristobal Las Casas (Мексика) (147 км)
Погода в Comitan (Мексика) (189 км)
Погода в Coatzacoalcos (Мексика) (218 км)
Погода в Villahermosa (Мексика) (220 км)
Погода в Tapachula City (Мексика) (229 км)
Погода в Huehuetenango (Гватемала) (280 км)
Погода в Puerto Angel (Мексика) (283 км)
Погода в Oaxaca (Мексика) (313 км)

Пояснения к столбцам:

Ветер - указаны скорость ветра в м/с - средняя за 10 мин, порывы в срок и между сроками (в фигурных скобках) и направление, откуда дует ветер: С - северный, СВ - северо-восточный, В - восточный, ЮВ - юго-восточный, Ю - южный, ЮЗ - юго-западный, З - западный, СЗ - северо-западный.
Видимость - горизонтальная дальность видимости в метрах или километрах. При видимости от 1 до 10 км при отсутствии осадков обычно наблюдается дымка, при ухудшении видимости до 1 км и менее - туман. В сухую погоду видимость может ухудшаться дымом, пылью или мглою.
Явления - указаны атмосферные явления, наблюдавшиеся в срок или в последний час перед сроком; фигурными скобками обозначены явления, наблюдавшиеся между сроками (за 1-3 часа до срока); квадратными скобками обозначены град или гололедные отложения с указанием их диаметра в мм.
Облачность - указаны через наклонную черту общая и нижняя облачность в баллах и высота нижней границы облаков в метрах; квадратными скобками обозначены формы облаков: Ci - перистые, Cs - перисто-слоистые, Cc - перисто-кучевые, Ac - высококучевые, As - высокослоистые, Sc - слоисто-кучевые, Ns - слоисто-дождевые, Cu - кучевые, Cb - кучево-дождевые. Подробнее классификацию облаков см. в Атласе облаков (PDF).
T - Температура воздуха - температура, измеренная на высоте 2 м над землей.
Td - Температура точки росы - температура, при понижении до которой содержащийся в воздухе водяной пар достигнет насыщения.
f - Относительная влажность воздуха - влажноcть воздуха, измеренная на высоте 2 м над землей.
Te - Эффективная температура - температура, которую ощущает одетый по сезону человек в тени. Характеристика душности погоды. При расчете учитывается влияние влажности воздуха и скорости ветра на теплоощущения человека.
Tes - Эффективная температура на солнце - температура, которую ощущает человек, с поправкой на солнечный нагрев. Характеристика знойности погоды. Зависит от высоты солнца над горизонтом, облачности и скорости ветра. Ночью, в пасмурную погоду, а также при ветре 12 м/с и более поправка равна нулю.
P - Атмосферное давление - приведенное к уровню моря атмосферное давление.
Po - Атмосферное давление - измеренное на уровне метеостанции атмосферное давление.
Tmin - Минимальная температура - минимум температуры воздуха на высоте 2 м над землей.
Tmax - Максимальная температура - максимум температуры воздуха на высоте 2 м над землей.
R - Количество осадков - Количество выпавших осадков за период времени, мм. При наведении курсора мыши на число - период времени, за который выпало указанное количество осадков.
R24 - Количество осадков - Количество выпавших осадков за 24 часа, мм.
S - Снежный покров - Высота снежного покрова, см. При наведении курсора мыши на число - состояние снежного покрова и степень покрытия местности в баллах.